Kalispell, MT

2:04 PM MDT on April 30, 2017 (GMT -0600)
Glacier Park International

Weather History for KGPI - November, 2011

Change the Weather History Date:

Monday, November 14, 2011

  Actual Average Record
Temperature  
Mean Temperature 31 °F 32 °F  
Max Temperature 43 °F 40 °F 63 °F (1999)
Min Temperature 18 °F 25 °F -3 °F (1955)
Degree Days  
Heating Degree Days 34 33  
Month to date heating degree days 448 427  
Since 1 July heating degree days 1482 1635  
Cooling Degree Days 0 0  
Month to date cooling degree days 0 0  
Year to date cooling degree days 97 147  
Moisture  
Dew Point 25 °F    
Average Humidity 68    
Maximum Humidity 100    
Minimum Humidity 36    
Precipitation  
Precipitation 0.05 in 0.05 in 1.40 in (1903)
Month to date precipitation 0.11 0.65  
Year to date precipitation 15.12 14.65  
Snow  
Snow T in - - ()
Month to date snowfall T  
Year to date snowfall 27.0  
Since 1 July snowfall T  
Snow Depth 0.00 in    
Sea Level Pressure  
Sea Level Pressure 29.56 in    
Wind  
Wind Speed 6 mph (WSW)    
Max Wind Speed 28 mph    
Max Gust Speed 41 mph    
Visibility 7 miles    
Events Fog , Snow    
T = Trace of Precipitation, MM = Missing Value Source: NWS Daily Summary

Daily Weather History Graph

Daily Weather History Graph

Search for Another Location

Airport or City:

Trip Planner

Search our weather history database for the weather conditions in past years. The results will help you decide how hot, cold, wet, or windy it might be!

Date:

Astronomy

Nov. 14, 2011 Rise Set
Actual Time 7:42 AM MST 4:59 PM MST
Civil Twilight 7:08 AM MST 5:33 PM MST
Nautical Twilight 6:30 AM MST 6:11 PM MST
Astronomical Twilight 5:53 AM MST 6:48 PM MST
Moon 8:05 PM MST (11/14) 11:10 AM MST (11/14)
Length of Visible Light 10h 25m
Length of Day
9h 17m
Waning Gibbous, 86% of the Moon is Illuminated
Nov 14
Waning Gibbous
Nov 18
Last Quarter
Nov 24
New
Dec 2
First Quarter
Dec 10
Full

Hourly Weather History & Observations

Time (MST) Temp. Windchill Dew Point Humidity Pressure Visibility Wind Dir Wind Speed Gust Speed Precip Events Conditions
12:55 AM 32.0 °F 24.2 °F 28.0 °F 85% 29.56 in 10.0 mi South 9.2 mph - N/A   Mostly Cloudy
1:55 AM 34.0 °F 28.0 °F 28.0 °F 79% 29.54 in 10.0 mi South 6.9 mph 18.4 mph N/A   Overcast
2:55 AM 30.9 °F - 28.0 °F 89% 29.55 in 10.0 mi Calm Calm - N/A   Overcast
3:55 AM 27.0 °F 19.5 °F 25.0 °F 92% 29.53 in 10.0 mi South 6.9 mph - N/A   Partly Cloudy
4:55 AM 30.2 °F 23.4 °F 30.2 °F 100% 29.46 in 10.0 mi SSE 6.9 mph - N/A   Scattered Clouds
5:11 AM 30.2 °F 26.7 °F 28.4 °F 93% 29.46 in 10.0 mi SE 3.5 mph - N/A   Scattered Clouds
5:55 AM 32.0 °F 26.4 °F 28.0 °F 85% 29.51 in 10.0 mi SSW 5.8 mph - N/A   Mostly Cloudy
6:36 AM 30.2 °F 23.4 °F 28.4 °F 93% 29.45 in 10.0 mi South 6.9 mph - N/A   Partly Cloudy
6:55 AM 30.9 °F 25.2 °F 30.0 °F 96% 29.51 in 10.0 mi SE 5.8 mph - N/A   Scattered Clouds
7:55 AM 30.0 °F 23.2 °F 26.1 °F 85% 29.50 in 10.0 mi East 6.9 mph - N/A   Mostly Cloudy
8:55 AM 33.1 °F 30.0 °F 28.9 °F 85% 29.52 in 10.0 mi SSW 3.5 mph - N/A   Mostly Cloudy
9:01 AM 33.8 °F 29.6 °F 28.4 °F 81% 29.46 in 1.0 mi West 4.6 mph - 0.00 in Snow Light Snow
9:10 AM 32.0 °F - 28.4 °F 87% 29.46 in 1.0 mi Calm Calm - 0.00 in Snow Light Snow
9:16 AM 32.0 °F 28.7 °F 28.4 °F 87% 29.46 in 0.8 mi SSE 3.5 mph - 0.00 in Snow Light Snow
9:23 AM 32.0 °F - 30.2 °F 93% 29.46 in 1.5 mi Calm Calm - 0.00 in Snow Light Snow
9:25 AM 33.8 °F - 30.2 °F 87% 29.46 in 3.0 mi Calm Calm - 0.00 in Snow Light Snow
9:39 AM 33.8 °F 30.8 °F 30.2 °F 87% 29.46 in 10.0 mi East 3.5 mph - 0.00 in   Mostly Cloudy
9:55 AM 34.0 °F - 30.9 °F 89% 29.52 in 10.0 mi Calm Calm - 0.00 in Snow Light Snow
10:14 AM 33.8 °F 25.8 °F 30.2 °F 87% 29.48 in 1.5 mi North 10.4 mph - 0.00 in Snow Light Snow
10:16 AM 33.8 °F 24.8 °F 30.2 °F 87% 29.49 in 0.8 mi North 12.7 mph - 0.00 in Snow Light Snow
10:17 AM 33.8 °F 25.3 °F 30.2 °F 87% 29.49 in 0.2 mi North 11.5 mph - 0.00 in Fog , Snow Light Snow
10:23 AM 32.0 °F - 30.2 °F 93% 29.48 in 0.2 mi Calm Calm - 0.03 in Fog , Snow Light Snow
10:36 AM 33.8 °F 29.6 °F 30.2 °F 87% 29.49 in 1.2 mi West 4.6 mph - 0.05 in Snow Light Snow
10:38 AM 33.8 °F 30.8 °F 30.2 °F 87% 29.49 in 3.0 mi West 3.5 mph - 0.05 in Snow Light Snow
10:51 AM 32.0 °F 26.4 °F 30.2 °F 93% 29.49 in 10.0 mi South 5.8 mph - 0.05 in   Scattered Clouds
10:55 AM 32.0 °F 25.6 °F 30.0 °F 92% 29.55 in 10.0 mi SSE 6.9 mph - 0.05 in   Partly Cloudy
11:55 AM 39.9 °F 32.9 °F 26.1 °F 58% 29.55 in 10.0 mi WNW 11.5 mph - N/A   Partly Cloudy
12:55 PM 42.1 °F 34.5 °F 21.9 °F 45% 29.55 in 10.0 mi WNW 15.0 mph 20.7 mph N/A   Mostly Cloudy
1:55 PM 42.1 °F 38.4 °F 23.0 °F 47% 29.54 in 10.0 mi Variable 5.8 mph - N/A   Mostly Cloudy
2:17 PM 33.8 °F 21.0 °F 26.6 °F 75% 29.52 in 1.5 mi WNW 25.3 mph 41.4 mph 0.00 in Snow Light Snow
2:19 PM 33.8 °F 21.0 °F 26.6 °F 75% 29.52 in 2.0 mi West 25.3 mph 41.4 mph 0.00 in Snow Light Snow
2:27 PM 33.8 °F 23.2 °F 26.6 °F 75% 29.50 in 3.0 mi West 17.3 mph 39.1 mph 0.00 in Snow Light Snow
2:38 PM 33.8 °F 25.3 °F 26.6 °F 75% 29.53 in 10.0 mi West 11.5 mph 24.2 mph 0.00 in   Overcast
2:55 PM 34.0 °F 28.0 °F 26.1 °F 73% 29.61 in 10.0 mi Variable 6.9 mph - 0.00 in   Overcast
3:55 PM 33.1 °F 26.9 °F 26.1 °F 75% 29.67 in 10.0 mi Variable 6.9 mph - 0.00 in   Mostly Cloudy
4:55 PM 34.0 °F 26.0 °F 16.0 °F 48% 29.69 in 10.0 mi West 10.4 mph 16.1 mph N/A   Mostly Cloudy
5:55 PM 33.1 °F 24.4 °F 10.9 °F 40% 29.73 in 10.0 mi West 11.5 mph 19.6 mph N/A   Clear
6:55 PM 30.9 °F 23.5 °F 7.0 °F 37% 29.77 in 10.0 mi WNW 8.1 mph - N/A   Clear
7:55 PM 28.9 °F 20.4 °F 6.1 °F 38% 29.81 in 10.0 mi West 9.2 mph - N/A   Clear
8:55 PM 28.0 °F 24.2 °F 7.0 °F 41% 29.85 in 10.0 mi NW 3.5 mph - N/A   Clear
9:55 PM 26.6 °F 22.6 °F 6.8 °F 43% 29.79 in 10.0 mi NNW 3.5 mph - N/A   Clear
10:55 PM 19.9 °F - 10.0 °F 65% 29.91 in 10.0 mi Calm Calm - N/A   Clear
11:55 PM 19.0 °F - 9.0 °F 65% 29.92 in 10.0 mi Calm Calm - N/A   Clear